Regional Weather Roundup
Issued by NWS

Home | Current Version | Previous Version | Graphics & Text | Print | Product List | Glossary On
Versions: 1 2 3 4 5 6 7 8 9 10 11 12 13 14 15 16 17 18 19 20 21 22 23 24 25 26 27 28 29 30 31 32 33 34 35 36 37 38 39 40 41 42 43 44 45 46 47 48 49 50
000
ASUS43 KDTX 221210
RWRMI
MICHIGAN HOURLY REGIONAL WEATHER ROUNDUP
NATIONAL WEATHER SERVICE DETROIT/PONTIAC MI
700 AM EST WED NOV 22 2017

NOTE: "FAIR" INDICATES FEW OR NO CLOUDS BELOW 12,000 FEET WITH NO
SIGNIFICANT WEATHER AND/OR OBSTRUCTION TO VISIBILITY.

MIZ047>049-052>055-059>063-066>070-074>076-081>083-221300-
SOUTHEAST LOWER MICHIGAN

CITY           SKY/WX    TMP DP  RH WIND       PRES   REMARKS
ADRIAN         CLOUDY    30  20  66 N7        30.23R WCI  23
6HR MIN TEMP:  30; 6HR MAX TEMP:  33;

ALMA           CLOUDY    29  18  63 NW7       30.25R WCI  22
6HR MIN TEMP:  28; 6HR MAX TEMP:  31;

ANN ARBOR      CLOUDY    30  18  60 NW10      30.22R WCI  21
BAD AXE        CLOUDY    28  17  63 N10       30.20R WCI  19
6HR MIN TEMP:  28; 6HR MAX TEMP:  30;

CARO           CLOUDY    28  21  74 W8        30.20S WCI  20
DETROIT CITY   CLOUDY    31  17  56 NW10      30.22R WCI  22
6HR MIN TEMP:  31; 6HR MAX TEMP:  35;

DETROIT        CLOUDY    31  18  58 NW13      30.23R WCI  21
6HR MIN TEMP:  31; 6HR MAX TEMP:  35; 6HR PCP: TRACE;

FLINT          CLOUDY    28  17  63 NW10      30.22R WCI  19
6HR MIN TEMP:  28; 6HR MAX TEMP:  32;

GROSSE ILE     CLOUDY    31  20  62 N10       30.21R WCI  23
6HR MIN TEMP:  31; 6HR MAX TEMP:  35;

HILLSDALE      CLOUDY    30  19  64 NW7       30.21R WCI  23
HOWELL         CLOUDY    28  18  65 NW6       30.22R WCI  22
6HR MIN TEMP:  28; 6HR MAX TEMP:  31;


CITY           SKY/WX    TMP DP  RH WIND       PRES   REMARKS
JACKSON        CLOUDY    29  17  61 NW10      30.23R WCI  20
6HR MIN TEMP:  29; 6HR MAX TEMP:  33;

LAMBERTVILLE   CLOUDY    33  20  59 N8        30.23R WCI  26
6HR MIN TEMP:  33; 6HR MAX TEMP:  37;

LANSING        CLOUDY    28  17  63 NW7       30.24R WCI  21
6HR MIN TEMP:  28; 6HR MAX TEMP:  31;

LAPEER         CLOUDY    29  19  65 NW8       30.21R WCI  21
6HR MIN TEMP:  28; 6HR MAX TEMP:  32;

MASON          CLOUDY    29  17  59 NW6       30.23S WCI  23
MONROE         CLOUDY    32  19  58 NW10      30.22R WCI  24
MT. CLEMENS    CLOUDY    31  20  64 NW8       30.19R WCI  23
6HR MIN TEMP:  31; 6HR MAX TEMP:  34; 6HR PCP: TRACE;

PONTIAC        PTCLDY    27  18  69 NW9       30.19R WCI  18
6HR MIN TEMP:  27; 6HR MAX TEMP:  32; 6HR PCP: TRACE;

PORT HOPE        N/A     30  18  60 NW16G24   30.17R WCI  19
6HR MIN TEMP:  30; 6HR MAX TEMP:  32;

PORT HURON     CLOUDY    30  16  55 NW9G16    30.20R WCI  22
TRI CITIES     CLOUDY    29  20  69 NW10      30.24R WCI  20
6HR MIN TEMP:  29; 6HR MAX TEMP:  31;

MIDLAND        CLOUDY    30  20  67 NW3       30.22R
6HR MIN TEMP:  30; 6HR MAX TEMP:  31;

TROY           CLOUDY    32  17  55 NW12G17   30.23R WCI  23
SAGINAW HB     CLOUDY    30  19  64 NW8       30.23R WCI  23
$$
MIZ043>046-050>051-056>058-064>065-071>073-077>080-221300-
SOUTHWEST LOWER MICHIGAN

CITY           SKY/WX    TMP DP  RH WIND       PRES   REMARKS
BATTLE CREEK   CLOUDY    29  17  61 N7        30.26R WCI  22
6HR MIN TEMP:  29; 6HR MAX TEMP:  32;

BENTON HARBOR  CLOUDY    31  20  63 NE6       30.27R WCI  25
6HR MIN TEMP:  31; 6HR MAX TEMP:  35;

BIG RAPIDS     CLOUDY    28  19  70 CALM      30.23R
6HR MIN TEMP:  27; 6HR MAX TEMP:  28;

COLDWATER      CLOUDY    30  17  58 NW9       30.24R WCI  21
6HR MIN TEMP:  30; 6HR MAX TEMP:  32;

FREMONT        CLOUDY    29  18  62 NW6       30.25R WCI  23
HOLLAND        CLOUDY    30  18  60 NE5       30.27R WCI  25
6HR MIN TEMP:  30; 6HR MAX TEMP:  33;

GRAND RAPIDS   CLOUDY    29  19  66 NW6       30.26R WCI  23
6HR MIN TEMP:  29; 6HR MAX TEMP:  32;

IONIA          CLOUDY    29  17  60 NW3       30.25R
6HR MIN TEMP:  28; 6HR MAX TEMP:  32;

KALAMAZOO      CLOUDY    29  15  56 N8        30.26R WCI  21
6HR MIN TEMP:  29; 6HR MAX TEMP:  32;

LUDINGTON      CLOUDY    29  18  63 CALM      30.26R
6HR MIN TEMP:  29; 6HR MAX TEMP:  29;

MARSHALL       CLOUDY    28  17  62 N6        30.24R WCI  22
6HR MIN TEMP:  28; 6HR MAX TEMP:  32;

MOUNT PLEASANT CLOUDY    30  17  57 CALM      30.23R
6HR MIN TEMP:  29; 6HR MAX TEMP:  30;

MUSKEGON       CLOUDY    30  18  60 N5        30.27R WCI  25
6HR MIN TEMP:  30; 6HR MAX TEMP:  31;

SOUTH HAVEN    CLOUDY    31  19  61 E3        30.27R
$$
MIZ016>042-221300-
NORTHERN LOWER MICHIGAN

CITY           SKY/WX    TMP DP  RH WIND       PRES   REMARKS
ALPENA         CLOUDY    26  21  81 W5        30.20R WCI  20
6HR MIN TEMP:  25; 6HR MAX TEMP:  29; 6HR PCP:  0.01;

BEAVER ISLAND  CLOUDY    28  22  78 W7G16     30.21S WCI  21
6HR MIN TEMP:  27; 6HR MAX TEMP:  28;

BELLAIRE       CLOUDY    28  23  83 CALM      30.22R
6HR MIN TEMP:  27; 6HR MAX TEMP:  28;

CADILLAC       CLOUDY    26  16  67 W7        30.19R WCI  18
CHARLEVOIX     CLOUDY    30  16  57 NW12G17   30.24R WCI  20
6HR MIN TEMP:  29; 6HR MAX TEMP:  30;

FRANKFORT      CLOUDY    30  18  60 NW8       30.24S WCI  23
GAYLORD        CLOUDY    22  19  89 CALM      30.17R
6HR MIN TEMP:  22; 6HR MAX TEMP:  25; 6HR PCP:  0.02;

GRAYLING       LGT SNOW  25  19  80 W5        30.19R WCI  19
6HR MIN TEMP:  23; 6HR MAX TEMP:  26;

HARBOR SPRINGS CLOUDY    28  15  57 W3        30.20R
HOUGHTON LAKE  LGT SNOW  24  21  88 NW7       30.20R FOG     WCI  16
6HR MIN TEMP:  24; 6HR MAX TEMP:  25; 6HR PCP:  0.04;

MANISTEE       FLURRIES  29  18  63 NW8       30.25R WCI  21
OSCODA         PTCLDY    19  14  81 NW5       30.21R WCI  12
6HR MIN TEMP:  19; 6HR MAX TEMP:  27;

PELLSTON       FLURRIES  23  17  78 NW7       30.20R WCI  15
6HR MIN TEMP:  23; 6HR MAX TEMP:  28; 6HR PCP: TRACE;

ROGERS CITY    CLOUDY    26  20  79 SW6       30.20R WCI  19
TRAVERSE CITY  FLURRIES  29  18  63 NW9       30.22R WCI  20
6HR MIN TEMP:  28; 6HR MAX TEMP:  30; 6HR PCP: TRACE;

$$
MIZ007>008-015-221300-
EASTERN UPPER MICHIGAN

CITY           SKY/WX    TMP DP  RH WIND       PRES   REMARKS
KINROSS        LGT SNOW  20  18  92 SW6       30.16S FOG     WCI  12
6HR MIN TEMP:  19; 6HR MAX TEMP:  20;

MACKINAC ISLAN CLEAR     26  19  77 W9        30.18R WCI  16
6HR MIN TEMP:  26; 6HR MAX TEMP:  27;

NEWBERRY       CLOUDY    22  22  97 W6        30.17S WCI  15
6HR MIN TEMP:  19; 6HR MAX TEMP:  22;

S. S. MARIE    LGT SNOW  21  18  88 E3        30.16R FOG
6HR MIN TEMP:  21; 6HR MAX TEMP:  23; 6HR PCP:  0.02;

$$
MIZ004>006-011>014-085-221300-
CENTRAL UPPER MICHIGAN

CITY           SKY/WX    TMP DP  RH WIND       PRES   REMARKS
MANISTIQUE     CLOUDY    22  16  76 W7        30.20F WCI  14
6HR MIN TEMP:  19; 6HR MAX TEMP:  23;

ESCANABA       CLOUDY    24  17  74 W8        30.24F WCI  15
6HR MIN TEMP:  20; 6HR MAX TEMP:  24; 6HR PCP: TRACE;

MENOMINEE      CLOUDY    24  14  65 CALM      30.27F
6HR MIN TEMP:  24; 6HR MAX TEMP:  25; 6HR PCP: TRACE;

SAWYER-GWINN   CLOUDY    21  16  79 W5        30.19S WCI  15
$$
MIZ001>003-009>011-084-221300-
WESTERN UPPER MICHIGAN

CITY           SKY/WX    TMP DP  RH WIND       PRES   REMARKS
IRON MOUNTAIN  CLOUDY    22  13  68 W3        30.21S
6HR MIN TEMP:  22; 6HR MAX TEMP:  22; 6HR PCP: TRACE;

HOUGHTON       CLOUDY    24  16  71 W6        30.19R WCI  17
6HR MIN TEMP:  23; 6HR MAX TEMP:  24; 6HR PCP: TRACE;

IRONWOOD       CLOUDY    14   9  80 SW7       30.24S WCI   4
6HR MIN TEMP:  14; 6HR MAX TEMP:  20; 6HR PCP: TRACE;

$$

ABBREVIATIONS USED IN REMARKS
   TC - TEMPERATURE IN CELSIUS
  WCI - WIND CHILL INDEX
   HX - HEAT INDEX
  VSB - VISIBILITY





USA.gov is the U.S. government's official web portal to all federal, state and local government web resources and services.